Location: Dvur Kralove nad Labem
(50.4330°N, 15.8170°E)
Time: 15:01:45
(UTC+02:00)

ISS - Pass Details

Date: 18 May 2018
Orbit: 402 x 407 km, 51.6° (Epoch: 24 May)

Event Time Altitude Azimuth Distance (km) Brightness Sun altitude
Exits shadow 01:48:27 43° 275° (W) 580 -3.2 -19.0°
Maximum altitude 01:49:23 76° 351° (N) 420 -3.7 -19.0°
Drops below altitude 10° 01:52:39 10° 78° (ENE) 1,458 -0.7 -18.9°
Sets 01:54:44 0° 80° (E) 2,318 0.4 -18.8°
